Location: Elmsmere
(40.9284°N, 73.8207°W)
Time: 22:13:23
(UTC+00:00)

STARLINK-2616 - Pass Details

Date: 26 June 2021
Orbit: 348 x 351 km, 53.0° (Epoch: 31 July)

Event Time Altitude Azimuth Distance (km) Brightness Sun altitude
Exits shadow 08:49:39 - 274° (W) 1,922 6.0 -6.3°
Reaches altitude 10° 08:51:30 10° 292° (WNW) 1,313 5.3 -6.0°
Maximum altitude 08:53:32 17° 336° (NNW) 986 5.1 -5.7°
Drops below altitude 10° 08:55:34 10° 21° (NNE) 1,317 6.6 -5.4°
Sets 08:58:03 0° 43° (NE) 2,162 8.9 -5.0°
